Middletown, OH

9:18 PM EDT on October 16, 2017 (GMT -0400)
Hook Field Municipal

Weather History for KMWO - July, 2013

Change the Weather History Date:

Saturday, July 27, 2013

  Actual Average (KFFO) Record (KFFO)
Temperature  
Mean Temperature 70 °F -  
Max Temperature 77 °F 82 °F 95 °F (1997)
Min Temperature 60 °F 61 °F 55 °F (1998)
Cooling Degree Days 4    
Growing Degree Days 20 (Base 50)    
Moisture  
Dew Point 65 °F    
Average Humidity 90    
Maximum Humidity 100    
Minimum Humidity 57    
Precipitation  
Precipitation 0.00 in - - ()
Sea Level Pressure  
Sea Level Pressure 29.92 in    
Wind  
Wind Speed 4 mph (WSW)    
Max Wind Speed 15 mph    
Max Gust Speed 18 mph    
Visibility 8 miles    
Events Rain    
Averages and records for this station are not official NWS values.
T = Trace of Precipitation, MM = Missing Value Source: NWS Daily Summary

Daily Weather History Graph

Daily Weather History Graph

Search for Another Location

Airport or City:

Trip Planner

Search our weather history database for the weather conditions in past years. The results will help you decide how hot, cold, wet, or windy it might be!

Date:

Astronomy

Jul. 27, 2013 Rise Set
Actual Time 6:32 AM EDT 8:54 PM EDT
Civil Twilight 6:02 AM EDT 9:25 PM EDT
Nautical Twilight 5:24 AM EDT 10:02 PM EDT
Astronomical Twilight 4:43 AM EDT 10:44 PM EDT
Moon 11:43 PM EDT (7/27) 12:10 PM EDT (7/27)
Length of Visible Light 15h 22m
Length of Day
14h 22m
Waning Gibbous, 71% of the Moon is Illuminated
Jul 27
Waning Gibbous
Jul 29
Last Quarter
Aug 6
New
Aug 14
First Quarter
Aug 20
Full

Hourly Weather History & Observations

Time (EDT) Temp. Dew Point Humidity Pressure Visibility Wind Dir Wind Speed Gust Speed Precip Events Conditions
12:15 AM 67.6 °F 67.6 °F 100% 29.99 in 10.0 mi Calm Calm - N/A   Clear
12:35 AM 67.6 °F 67.6 °F 100% 29.99 in 10.0 mi Calm Calm - N/A   Clear
12:55 AM 67.6 °F 67.6 °F 100% 29.98 in 10.0 mi Calm Calm - N/A   Scattered Clouds
1:15 AM 67.6 °F 67.6 °F 100% 29.98 in 10.0 mi Calm Calm - N/A   Light Drizzle
1:35 AM 67.6 °F 67.6 °F 100% 29.97 in 10.0 mi Calm Calm - N/A Rain Light Rain
1:55 AM 67.6 °F 67.6 °F 100% 29.97 in 10.0 mi Calm Calm - N/A   Overcast
2:15 AM 67.6 °F 67.6 °F 100% 29.97 in 10.0 mi Calm Calm - N/A   Overcast
2:35 AM 67.6 °F 67.6 °F 100% 29.97 in 7.0 mi Calm Calm - N/A   Overcast
2:55 AM 67.6 °F 67.6 °F 100% 29.97 in 10.0 mi Calm Calm - N/A   Light Drizzle
3:15 AM 67.6 °F 67.6 °F 100% 29.97 in 10.0 mi Calm Calm - N/A Rain Light Rain
3:35 AM 67.6 °F 67.6 °F 100% 29.97 in 7.0 mi West 3.5 mph - N/A Rain Light Rain
3:55 AM 67.6 °F 67.3 °F 99% 29.97 in 10.0 mi WSW 5.8 mph - N/A Rain Light Rain
4:15 AM 67.6 °F 67.6 °F 100% 29.96 in 10.0 mi West 4.6 mph - N/A Rain Light Rain
4:35 AM 67.6 °F 67.6 °F 100% 29.96 in 10.0 mi Calm Calm - N/A Rain Light Rain
4:55 AM 67.6 °F 67.6 °F 100% 29.95 in 10.0 mi Calm Calm - N/A Rain Rain
5:15 AM 65.3 °F 65.3 °F 100% 29.95 in 10.0 mi Calm Calm - N/A   Drizzle
5:35 AM 66.2 °F 66.2 °F 100% 29.95 in 10.0 mi Calm Calm - N/A Rain Rain
5:55 AM 65.3 °F 65.3 °F 100% 29.94 in 7.0 mi Calm Calm - N/A Rain Light Rain
6:15 AM 65.7 °F 65.7 °F 100% 29.94 in 7.0 mi Calm Calm - N/A Rain Rain
6:35 AM 65.3 °F 65.3 °F 100% 29.95 in 7.0 mi Calm Calm - N/A   Light Drizzle
6:55 AM 65.3 °F 65.3 °F 100% 29.95 in 5.0 mi SW 3.5 mph - N/A Rain Light Rain
7:15 AM 65.3 °F 65.3 °F 100% 29.95 in 5.0 mi SW 4.6 mph - N/A Rain Light Rain
7:35 AM 65.3 °F 65.3 °F 100% 29.95 in 4.0 mi South 3.5 mph - N/A Rain Light Rain
7:55 AM 66.0 °F 66.0 °F 100% 29.95 in 5.0 mi South 4.6 mph - N/A Rain Rain
8:15 AM 65.3 °F 65.3 °F 100% 29.95 in 7.0 mi South 5.8 mph - N/A   Light Drizzle
8:35 AM 65.3 °F 64.9 °F 99% 29.95 in 10.0 mi SSW 8.1 mph - N/A   Overcast
8:55 AM 65.3 °F 65.3 °F 100% 29.95 in 7.0 mi SW 6.9 mph - N/A Rain Light Rain
9:15 AM 64.0 °F 64.0 °F 100% 29.96 in 2.5 mi SW 5.8 mph - N/A Rain Heavy Rain
9:35 AM 62.6 °F 62.6 °F 100% 29.96 in 2.5 mi SW 4.6 mph - N/A Rain Rain
9:55 AM 62.6 °F 62.6 °F 100% 29.95 in 3.0 mi South 3.5 mph - N/A Rain Rain
10:15 AM 62.6 °F 62.6 °F 100% 29.95 in 2.5 mi South 4.6 mph - N/A Rain Rain
10:35 AM 64.9 °F 64.9 °F 100% 29.94 in 3.0 mi South 5.8 mph - N/A Rain Rain
10:55 AM 65.3 °F 65.3 °F 100% 29.94 in 4.0 mi South 6.9 mph - N/A Rain Light Rain
11:15 AM 65.3 °F 65.3 °F 100% 29.93 in 4.0 mi SSW 8.1 mph - N/A   Drizzle
11:35 AM 67.6 °F 67.6 °F 100% 29.93 in 5.0 mi South 8.1 mph - N/A   Overcast
11:55 AM 67.6 °F 67.6 °F 100% 29.92 in 5.0 mi South 6.9 mph - N/A   Light Drizzle
12:15 PM 67.6 °F 67.6 °F 100% 29.92 in 4.0 mi SSW 8.1 mph - N/A Rain Light Rain
12:35 PM 67.6 °F 67.6 °F 100% 29.92 in 2.5 mi SW 9.2 mph - N/A Rain Light Rain
12:55 PM 67.6 °F 67.6 °F 100% 29.92 in 5.0 mi WSW 8.1 mph - N/A   Overcast
1:15 PM 67.6 °F 67.6 °F 100% 29.92 in 5.0 mi WSW 8.1 mph - N/A   Overcast
1:35 PM 72.7 °F 72.3 °F 99% 29.91 in 10.0 mi SW 11.5 mph - N/A   Overcast
1:55 PM 72.7 °F 70.7 °F 93% 29.91 in 10.0 mi WSW 11.5 mph - N/A   Mostly Cloudy
2:15 PM 72.7 °F 70.0 °F 91% 29.90 in 10.0 mi SW 12.7 mph - N/A   Scattered Clouds
2:35 PM 72.9 °F 67.6 °F 84% 29.90 in 10.0 mi SW 11.5 mph 18.4 mph N/A   Scattered Clouds
2:55 PM 73.9 °F 68.2 °F 82% 29.89 in 10.0 mi WSW 12.7 mph 17.3 mph N/A   Scattered Clouds
3:15 PM 75.2 °F 68.4 °F 79% 29.89 in 10.0 mi SW 9.2 mph - N/A   Scattered Clouds
3:35 PM 75.2 °F 67.5 °F 77% 29.88 in 10.0 mi SW 12.7 mph 16.1 mph N/A   Scattered Clouds
3:55 PM 75.6 °F 65.1 °F 70% 29.87 in 10.0 mi SW 11.5 mph 17.3 mph N/A   Scattered Clouds
4:15 PM 75.2 °F 65.8 °F 73% 29.87 in 10.0 mi West 10.4 mph - N/A   Scattered Clouds
4:35 PM 75.2 °F 64.2 °F 69% 29.87 in 10.0 mi West 8.1 mph 17.3 mph N/A   Scattered Clouds
4:55 PM 75.4 °F 63.0 °F 65% 29.87 in 10.0 mi West 11.5 mph 17.3 mph N/A   Scattered Clouds
5:15 PM 75.7 °F 60.6 °F 59% 29.87 in 10.0 mi WNW 12.7 mph 18.4 mph N/A   Scattered Clouds
5:35 PM 75.9 °F 59.9 °F 57% 29.87 in 10.0 mi West 13.8 mph 17.3 mph N/A   Scattered Clouds
5:55 PM 77.9 °F 61.3 °F 57% 29.87 in 10.0 mi West 15.0 mph - N/A   Mostly Cloudy
6:15 PM 75.2 °F 59.9 °F 59% 29.86 in 10.0 mi West 11.5 mph 17.3 mph N/A   Scattered Clouds
6:35 PM 75.2 °F 60.8 °F 61% 29.86 in 10.0 mi West 10.4 mph 16.1 mph N/A   Clear
6:55 PM 75.2 °F 61.2 °F 62% 29.87 in 10.0 mi West 10.4 mph 17.3 mph N/A   Clear
7:15 PM 75.2 °F 60.8 °F 61% 29.87 in 10.0 mi West 9.2 mph - N/A   Clear
7:35 PM 72.9 °F 60.3 °F 65% 29.87 in 10.0 mi West 9.2 mph - N/A   Clear
7:55 PM 72.7 °F 61.7 °F 68% 29.87 in 10.0 mi West 6.9 mph - N/A   Clear
8:15 PM 72.7 °F 64.2 °F 75% 29.88 in 10.0 mi West 4.6 mph - N/A   Clear
8:35 PM 67.6 °F 62.1 °F 82% 29.89 in 10.0 mi West 5.8 mph - N/A   Mostly Cloudy
8:55 PM 67.8 °F 60.6 °F 78% 29.89 in 10.0 mi WSW 8.1 mph - N/A   Mostly Cloudy
9:15 PM 67.6 °F 60.8 °F 79% 29.90 in 10.0 mi West 4.6 mph - N/A   Scattered Clouds
9:35 PM 67.6 °F 61.0 °F 79% 29.90 in 10.0 mi West 6.9 mph - N/A   Scattered Clouds
9:55 PM 67.6 °F 63.3 °F 86% 29.91 in 10.0 mi West 5.8 mph - N/A   Scattered Clouds
10:15 PM 65.3 °F 63.3 °F 93% 29.92 in 10.0 mi WNW 4.6 mph - N/A   Scattered Clouds
10:35 PM 62.6 °F 61.2 °F 95% 29.92 in 10.0 mi WNW 4.6 mph - N/A   Mostly Cloudy
10:55 PM 62.6 °F 59.9 °F 91% 29.92 in 10.0 mi WNW 5.8 mph - N/A   Scattered Clouds
11:15 PM 62.6 °F 59.2 °F 89% 29.92 in 10.0 mi NW 6.9 mph - N/A   Clear
11:35 PM 62.6 °F 58.6 °F 87% 29.93 in 10.0 mi NW 5.8 mph - N/A   Clear
11:55 PM 60.8 °F 57.4 °F 88% 29.93 in 10.0 mi NW 4.6 mph - N/A   Clear